Time,TemperatureF,DewpointF,PressureIn,WindDirection,WindDirectionDegrees,WindSpeedMPH,WindSpeedGustMPH,Humidity,HourlyPrecipIn,Conditions,Clouds,dailyrainin,SoftwareType,DateUTC
2013-08-04 00:05:00,82.2,68.8,29.94,SSE,151,2.0,5.0,64,0.00,,,0.00,Wunderground v.1.15,2013-08-04 05:05:00,
2013-08-04 00:10:00,82.0,69.1,29.94,SSE,151,2.0,2.0,65,0.00,,,0.00,Wunderground v.1.15,2013-08-04 05:10:00,
2013-08-04 00:20:00,81.6,69.1,29.95,SSE,151,4.0,4.0,66,0.00,,,0.00,Wunderground v.1.15,2013-08-04 05:20:00,
2013-08-04 00:25:00,81.4,68.9,29.95,SSE,152,4.0,6.0,66,0.00,,,0.00,Wunderground v.1.15,2013-08-04 05:25:00,
2013-08-04 00:35:00,81.2,69.2,29.95,SSE,152,3.0,4.0,67,0.00,,,0.00,Wunderground v.1.15,2013-08-04 05:35:00,
2013-08-04 00:40:00,81.1,69.5,29.95,SSE,152,3.0,3.0,68,0.00,,,0.00,Wunderground v.1.15,2013-08-04 05:40:00,
2013-08-04 00:50:00,80.7,69.6,29.95,SSE,152,3.0,7.0,69,0.00,,,0.00,Wunderground v.1.15,2013-08-04 05:50:00,
2013-08-04 00:55:00,80.5,69.8,29.95,SSE,155,4.0,7.0,70,0.00,,,0.00,Wunderground v.1.15,2013-08-04 05:55:00,
2013-08-04 01:05:00,80.3,70.4,29.95,SSE,157,4.0,4.0,72,0.00,,,0.00,Wunderground v.1.15,2013-08-04 06:05:00,
2013-08-04 01:10:00,80.1,70.7,29.95,SSE,157,3.0,6.0,73,0.00,,,0.00,Wunderground v.1.15,2013-08-04 06:10:00,
2013-08-04 01:20:00,79.8,70.8,29.95,SSE,158,3.0,5.0,74,0.00,,,0.00,Wunderground v.1.15,2013-08-04 06:20:00,
2013-08-04 01:25:00,79.6,70.2,29.95,SSE,157,4.0,5.0,73,0.00,,,0.00,Wunderground v.1.15,2013-08-04 06:25:00,
2013-08-04 01:35:00,79.4,69.2,29.95,SSE,160,4.0,6.0,71,0.00,,,0.00,Wunderground v.1.15,2013-08-04 06:35:00,
2013-08-04 01:40:00,79.2,69.4,29.95,SSE,160,3.0,6.0,72,0.00,,,0.00,Wunderground v.1.15,2013-08-04 06:40:00,
2013-08-04 01:50:00,79.0,69.2,29.95,SSE,160,3.0,3.0,72,0.00,,,0.00,Wunderground v.1.15,2013-08-04 06:50:00,
2013-08-04 01:55:00,78.8,69.4,29.95,SSE,160,3.0,5.0,73,0.00,,,0.00,Wunderground v.1.15,2013-08-04 06:55:00,
2013-08-04 02:05:00,78.5,69.5,29.95,SSE,161,3.0,6.0,74,0.00,,,0.00,Wunderground v.1.15,2013-08-04 07:05:00,
2013-08-04 02:10:00,78.3,69.3,29.95,SSE,160,2.0,6.0,74,0.00,,,0.00,Wunderground v.1.15,2013-08-04 07:10:00,
2013-08-04 02:20:00,78.1,69.5,29.95,SSE,160,3.0,3.0,75,0.00,,,0.00,Wunderground v.1.15,2013-08-04 07:20:00,
2013-08-04 02:25:00,77.9,69.3,29.95,SSE,160,3.0,5.0,75,0.00,,,0.00,Wunderground v.1.15,2013-08-04 07:25:00,
2013-08-04 02:35:00,77.7,69.9,29.95,SSE,160,3.0,8.0,77,0.00,,,0.00,Wunderground v.1.15,2013-08-04 07:35:00,
2013-08-04 02:40:00,77.6,69.8,29.96,SSE,160,3.0,3.0,77,0.00,,,0.00,Wunderground v.1.15,2013-08-04 07:40:00,
2013-08-04 02:50:00,77.4,70.0,29.96,SSE,160,4.0,4.0,78,0.00,,,0.00,Wunderground v.1.15,2013-08-04 07:50:00,
2013-08-04 02:55:00,77.2,70.2,29.96,SSE,160,4.0,5.0,79,0.00,,,0.00,Wunderground v.1.15,2013-08-04 07:55:00,
2013-08-04 03:05:00,77.0,70.0,29.95,SSE,160,2.0,10.0,79,0.00,,,0.00,Wunderground v.1.15,2013-08-04 08:05:00,
2013-08-04 03:10:00,76.8,70.2,29.95,SSE,160,2.0,2.0,80,0.00,,,0.00,Wunderground v.1.15,2013-08-04 08:10:00,
2013-08-04 03:20:00,76.7,70.4,29.95,SSE,160,2.0,2.0,81,0.00,,,0.00,Wunderground v.1.15,2013-08-04 08:20:00,
2013-08-04 03:25:00,76.5,70.2,29.95,SSE,161,3.0,3.0,81,0.00,,,0.00,Wunderground v.1.15,2013-08-04 08:25:00,
2013-08-04 03:35:00,76.5,70.6,29.95,SSE,161,3.0,3.0,82,0.00,,,0.00,Wunderground v.1.15,2013-08-04 08:35:00,
2013-08-04 03:40:00,76.3,70.8,29.95,SSE,161,1.0,1.0,83,0.00,,,0.00,Wunderground v.1.15,2013-08-04 08:40:00,
2013-08-04 03:50:00,76.1,70.6,29.95,SSE,161,1.0,3.0,83,0.00,,,0.00,Wunderground v.1.15,2013-08-04 08:50:00,
2013-08-04 03:55:00,76.1,70.9,29.95,SSE,164,2.0,3.0,84,0.00,,,0.00,Wunderground v.1.15,2013-08-04 08:55:00,
2013-08-04 04:05:00,76.1,70.9,29.96,SSE,164,4.0,4.0,84,0.00,,,0.00,Wunderground v.1.15,2013-08-04 09:05:00,
2013-08-04 04:10:00,76.0,70.8,29.96,SSE,164,4.0,4.0,84,0.00,,,0.00,Wunderground v.1.15,2013-08-04 09:10:00,
2013-08-04 04:20:00,76.0,71.2,29.95,SSE,164,3.0,5.0,85,0.00,,,0.00,Wunderground v.1.15,2013-08-04 09:20:00,
2013-08-04 04:25:00,75.8,71.0,29.95,SSE,164,3.0,5.0,85,0.00,,,0.00,Wunderground v.1.15,2013-08-04 09:25:00,
2013-08-04 04:35:00,75.6,70.8,29.95,SSE,164,1.0,2.0,85,0.00,,,0.00,Wunderground v.1.15,2013-08-04 09:35:00,
2013-08-04 04:40:00,75.6,71.1,29.95,SSE,164,1.0,1.0,86,0.00,,,0.00,Wunderground v.1.15,2013-08-04 09:40:00,
2013-08-04 04:50:00,75.4,70.9,29.95,SSE,164,1.0,5.0,86,0.00,,,0.00,Wunderground v.1.15,2013-08-04 09:50:00,
2013-08-04 04:55:00,75.4,70.9,29.95,SSE,164,1.0,5.0,86,0.00,,,0.00,Wunderground v.1.15,2013-08-04 09:55:00,
2013-08-04 05:05:00,75.3,70.8,29.94,SSE,164,1.0,2.0,86,0.00,,,0.00,Wunderground v.1.15,2013-08-04 10:05:00,
2013-08-04 05:10:00,75.3,71.2,29.94,SSE,164,0.0,0.0,87,0.00,,,0.00,Wunderground v.1.15,2013-08-04 10:10:00,
2013-08-04 05:20:00,75.1,71.0,29.94,SSE,164,2.0,2.0,87,0.00,,,0.00,Wunderground v.1.15,2013-08-04 10:20:00,
2013-08-04 05:25:00,75.1,71.3,29.94,SSE,164,1.0,2.0,88,0.00,,,0.00,Wunderground v.1.15,2013-08-04 10:25:00,
2013-08-04 05:35:00,74.9,71.1,29.93,SSE,164,1.0,2.0,88,0.00,,,0.00,Wunderground v.1.15,2013-08-04 10:35:00,
2013-08-04 05:40:00,74.9,71.1,29.93,SSE,164,1.0,1.0,88,0.00,,,0.00,Wunderground v.1.15,2013-08-04 10:40:00,
2013-08-04 05:50:00,74.7,70.9,29.94,SSE,164,0.0,0.0,88,0.00,,,0.00,Wunderground v.1.15,2013-08-04 10:50:00,
2013-08-04 05:55:00,74.6,71.1,29.94,SSE,164,0.0,0.0,89,0.00,,,0.00,Wunderground v.1.15,2013-08-04 10:55:00,
2013-08-04 06:05:00,74.6,71.1,29.95,SSE,164,0.0,0.0,89,0.00,,,0.00,Wunderground v.1.15,2013-08-04 11:05:00,
2013-08-04 06:10:00,74.4,70.9,29.95,SSE,164,0.0,0.0,89,0.00,,,0.00,Wunderground v.1.15,2013-08-04 11:10:00,
2013-08-04 06:20:00,74.4,70.9,29.96,SSE,164,0.0,0.0,89,0.00,,,0.00,Wunderground v.1.15,2013-08-04 11:20:00,
2013-08-04 06:25:00,74.2,70.7,29.96,SSE,164,0.0,0.0,89,0.00,,,0.00,Wunderground v.1.15,2013-08-04 11:25:00,
2013-08-04 06:35:00,74.2,71.1,29.97,SSE,164,0.0,0.0,90,0.00,,,0.00,Wunderground v.1.15,2013-08-04 11:35:00,
2013-08-04 06:40:00,74.2,71.1,29.97,SSE,164,0.0,0.0,90,0.00,,,0.00,Wunderground v.1.15,2013-08-04 11:40:00,
2013-08-04 06:50:00,74.0,70.9,29.97,SSE,164,0.0,0.0,90,0.00,,,0.00,Wunderground v.1.15,2013-08-04 11:50:00,
2013-08-04 06:55:00,74.0,71.2,29.97,SSE,164,0.0,0.0,91,0.00,,,0.00,Wunderground v.1.15,2013-08-04 11:55:00,
2013-08-04 07:05:00,74.0,71.2,29.98,SSE,164,0.0,0.0,91,0.00,,,0.00,Wunderground v.1.15,2013-08-04 12:05:00,
2013-08-04 07:10:00,74.0,71.2,29.98,SSE,164,0.0,0.0,91,0.00,,,0.00,Wunderground v.1.15,2013-08-04 12:10:00,
2013-08-04 07:20:00,74.2,71.4,29.98,SSE,164,0.0,0.0,91,0.00,,,0.00,Wunderground v.1.15,2013-08-04 12:20:00,
2013-08-04 07:25:00,74.2,71.4,29.98,SSE,164,0.0,0.0,91,0.00,,,0.00,Wunderground v.1.15,2013-08-04 12:25:00,
2013-08-04 07:35:00,74.4,71.6,29.98,SSE,164,1.0,1.0,91,0.00,,,0.00,Wunderground v.1.15,2013-08-04 12:35:00,
2013-08-04 07:40:00,74.6,71.8,29.98,SSE,164,1.0,1.0,91,0.00,,,0.00,Wunderground v.1.15,2013-08-04 12:40:00,
2013-08-04 07:50:00,74.9,71.8,29.98,SSE,164,1.0,1.0,90,0.00,,,0.00,Wunderground v.1.15,2013-08-04 12:50:00,
2013-08-04 07:55:00,75.1,71.6,29.98,SSE,164,1.0,1.0,89,0.00,,,0.00,Wunderground v.1.15,2013-08-04 12:55:00,
2013-08-04 08:05:00,75.6,72.1,29.99,SSE,164,0.0,1.0,89,0.00,,,0.00,Wunderground v.1.15,2013-08-04 13:05:00,
2013-08-04 08:10:00,76.0,72.2,29.99,SSE,164,0.0,0.0,88,0.00,,,0.00,Wunderground v.1.15,2013-08-04 13:10:00,
2013-08-04 08:20:00,76.5,72.0,29.99,SSE,164,1.0,1.0,86,0.00,,,0.00,Wunderground v.1.15,2013-08-04 13:20:00,
2013-08-04 08:25:00,76.8,72.3,29.99,SSE,164,1.0,2.0,86,0.00,,,0.00,Wunderground v.1.15,2013-08-04 13:25:00,
2013-08-04 08:35:00,77.6,72.0,30.00,SSE,164,1.0,1.0,83,0.00,,,0.00,Wunderground v.1.15,2013-08-04 13:35:00,
2013-08-04 08:40:00,77.9,72.0,30.00,SSE,164,2.0,2.0,82,0.00,,,0.00,Wunderground v.1.15,2013-08-04 13:40:00,
2013-08-04 08:50:00,78.8,72.1,30.00,SSE,164,2.0,2.0,80,0.00,,,0.00,Wunderground v.1.15,2013-08-04 13:50:00,
2013-08-04 08:55:00,79.2,72.5,30.00,SSE,164,2.0,2.0,80,0.00,,,0.00,Wunderground v.1.15,2013-08-04 13:55:00,
2013-08-04 09:05:00,79.9,72.0,30.00,SSE,164,2.0,3.0,77,0.00,,,0.00,Wunderground v.1.15,2013-08-04 14:05:00,
2013-08-04 09:10:00,80.5,71.8,30.00,SSE,164,2.0,2.0,75,0.00,,,0.00,Wunderground v.1.15,2013-08-04 14:10:00,
2013-08-04 09:20:00,80.7,71.6,30.00,SSE,164,2.0,3.0,74,0.00,,,0.00,Wunderground v.1.15,2013-08-04 14:20:00,
2013-08-04 09:25:00,80.5,71.4,30.00,SSE,164,3.0,3.0,74,0.00,,,0.00,Wunderground v.1.15,2013-08-04 14:25:00,
2013-08-04 09:35:00,80.3,71.6,30.00,SSE,164,3.0,3.0,75,0.00,,,0.00,Wunderground v.1.15,2013-08-04 14:35:00,
2013-08-04 09:40:00,80.7,71.6,30.01,SSE,164,3.0,3.0,74,0.00,,,0.00,Wunderground v.1.15,2013-08-04 14:40:00,
2013-08-04 09:50:00,80.9,71.0,30.01,SSE,164,2.0,2.0,72,0.00,,,0.00,Wunderground v.1.15,2013-08-04 14:50:00,
2013-08-04 09:55:00,80.7,71.6,30.01,SSE,164,1.0,2.0,74,0.00,,,0.00,Wunderground v.1.15,2013-08-04 14:55:00,
2013-08-04 10:05:00,80.9,71.0,30.01,SSE,164,3.0,5.0,72,0.00,,,0.00,Wunderground v.1.15,2013-08-04 15:05:00,
2013-08-04 10:10:00,80.7,70.8,30.01,SSE,164,3.0,3.0,72,0.00,,,0.00,Wunderground v.1.15,2013-08-04 15:10:00,
2013-08-04 10:20:00,81.4,71.1,30.01,SSE,164,1.0,1.0,71,0.00,,,0.00,Wunderground v.1.15,2013-08-04 15:20:00,
2013-08-04 10:25:00,82.8,71.6,30.00,SSE,164,2.0,2.0,69,0.00,,,0.00,Wunderground v.1.15,2013-08-04 15:25:00,
2013-08-04 10:35:00,84.1,71.1,30.00,SSE,164,2.0,6.0,65,0.00,,,0.00,Wunderground v.1.15,2013-08-04 15:35:00,
2013-08-04 10:40:00,84.0,71.0,30.00,SSE,164,2.0,3.0,65,0.00,,,0.00,Wunderground v.1.15,2013-08-04 15:40:00,
2013-08-04 10:50:00,84.1,70.6,30.00,SSE,164,1.0,5.0,64,0.00,,,0.00,Wunderground v.1.15,2013-08-04 15:50:00,
2013-08-04 10:55:00,84.7,71.6,30.00,SSE,164,2.0,5.0,65,0.00,,,0.00,Wunderground v.1.15,2013-08-04 15:55:00,
2013-08-04 11:05:00,86.5,71.5,30.00,SSE,164,1.0,3.0,61,0.00,,,0.00,Wunderground v.1.15,2013-08-04 16:05:00,
2013-08-04 11:10:00,87.4,71.8,30.00,SSE,164,1.0,1.0,60,0.00,,,0.00,Wunderground v.1.15,2013-08-04 16:10:00,
2013-08-04 11:20:00,88.0,71.9,29.99,SSE,164,0.0,0.0,59,0.00,,,0.00,Wunderground v.1.15,2013-08-04 16:20:00,
2013-08-04 11:25:00,87.4,71.3,30.00,SSE,164,1.0,1.0,59,0.00,,,0.00,Wunderground v.1.15,2013-08-04 16:25:00,
2013-08-04 11:35:00,87.0,69.9,29.99,SSE,164,2.0,2.0,57,0.00,,,0.00,Wunderground v.1.15,2013-08-04 16:35:00,
2013-08-04 11:40:00,87.8,70.7,29.99,SSE,164,2.0,2.0,57,0.00,,,0.00,Wunderground v.1.15,2013-08-04 16:40:00,
2013-08-04 11:50:00,89.5,69.5,29.98,SSE,162,1.0,1.0,52,0.00,,,0.00,Wunderground v.1.15,2013-08-04 16:50:00,
2013-08-04 11:55:00,90.1,69.5,29.98,SSE,160,2.0,6.0,51,0.00,,,0.00,Wunderground v.1.15,2013-08-04 16:55:00,
2013-08-04 12:05:00,91.0,69.2,29.98,SSE,155,2.0,3.0,49,0.00,,,0.00,Wunderground v.1.15,2013-08-04 17:05:00,
2013-08-04 12:10:00,91.4,69.6,29.98,SSE,158,2.0,5.0,49,0.00,,,0.00,Wunderground v.1.15,2013-08-04 17:10:00,
2013-08-04 12:20:00,92.1,70.2,29.98,SSE,157,2.0,2.0,49,0.00,,,0.00,Wunderground v.1.15,2013-08-04 17:20:00,
2013-08-04 12:25:00,92.5,70.0,29.97,SSE,158,2.0,5.0,48,0.00,,,0.00,Wunderground v.1.15,2013-08-04 17:25:00,
2013-08-04 12:35:00,92.1,70.2,29.97,SSE,158,2.0,2.0,49,0.00,,,0.00,Wunderground v.1.15,2013-08-04 17:35:00,
2013-08-04 12:40:00,91.6,70.3,29.97,SSE,158,2.0,2.0,50,0.00,,,0.00,Wunderground v.1.15,2013-08-04 17:40:00,
2013-08-04 12:50:00,91.8,69.9,29.97,SSE,158,2.0,2.0,49,0.00,,,0.00,Wunderground v.1.15,2013-08-04 17:50:00,
2013-08-04 12:55:00,92.9,69.7,29.97,SSE,158,1.0,2.0,47,0.00,,,0.00,Wunderground v.1.15,2013-08-04 17:55:00,
2013-08-04 13:05:00,93.8,69.9,29.97,SSE,158,1.0,2.0,46,0.00,,,0.00,Wunderground v.1.15,2013-08-04 18:05:00,
2013-08-04 13:10:00,93.6,69.7,29.96,SSE,150,2.0,6.0,46,0.00,,,0.00,Wunderground v.1.15,2013-08-04 18:10:00,
2013-08-04 13:20:00,93.4,68.9,29.96,SSE,151,3.0,3.0,45,0.00,,,0.00,Wunderground v.1.15,2013-08-04 18:20:00,
2013-08-04 13:25:00,93.6,69.7,29.95,SSE,151,1.0,3.0,46,0.00,,,0.00,Wunderground v.1.15,2013-08-04 18:25:00,
2013-08-04 13:35:00,94.0,68.8,29.95,SSE,151,2.0,6.0,44,0.00,,,0.00,Wunderground v.1.15,2013-08-04 18:35:00,
2013-08-04 13:40:00,93.6,70.3,29.95,SSE,152,2.0,5.0,47,0.00,,,0.00,Wunderground v.1.15,2013-08-04 18:40:00,
2013-08-04 13:50:00,94.3,70.3,29.94,SSE,152,2.0,2.0,46,0.00,,,0.00,Wunderground v.1.15,2013-08-04 18:50:00,
2013-08-04 13:55:00,94.0,69.4,29.94,SSE,152,2.0,2.0,45,0.00,,,0.00,Wunderground v.1.15,2013-08-04 18:55:00,
2013-08-04 14:05:00,93.8,69.9,29.94,SSE,151,1.0,3.0,46,0.00,,,0.00,Wunderground v.1.15,2013-08-04 19:05:00,
2013-08-04 14:10:00,94.3,69.0,29.93,SSE,151,1.0,1.0,44,0.00,,,0.00,Wunderground v.1.15,2013-08-04 19:10:00,
2013-08-04 14:20:00,93.6,69.1,29.93,SSE,151,2.0,2.0,45,0.00,,,0.00,Wunderground v.1.15,2013-08-04 19:20:00,
2013-08-04 14:25:00,93.6,68.4,29.93,SSE,154,2.0,3.0,44,0.00,,,0.00,Wunderground v.1.15,2013-08-04 19:25:00,
2013-08-04 14:35:00,94.5,68.5,29.92,SSE,152,1.0,2.0,43,0.00,,,0.00,Wunderground v.1.15,2013-08-04 19:35:00,
2013-08-04 14:40:00,94.9,68.2,29.92,SSE,152,2.0,2.0,42,0.00,,,0.00,Wunderground v.1.15,2013-08-04 19:40:00,
2013-08-04 14:50:00,94.7,68.0,29.92,SSE,150,1.0,1.0,42,0.00,,,0.00,Wunderground v.1.15,2013-08-04 19:50:00,
2013-08-04 14:55:00,95.1,67.7,29.92,SSE,151,2.0,2.0,41,0.00,,,0.00,Wunderground v.1.15,2013-08-04 19:55:00,
2013-08-04 15:05:00,94.5,67.9,29.92,SSE,151,2.0,5.0,42,0.00,,,0.00,Wunderground v.1.15,2013-08-04 20:05:00,
2013-08-04 15:10:00,94.0,68.1,29.91,SSE,151,2.0,2.0,43,0.00,,,0.00,Wunderground v.1.15,2013-08-04 20:10:00,
2013-08-04 15:20:00,93.8,68.6,29.91,SSE,151,1.0,1.0,44,0.00,,,0.00,Wunderground v.1.15,2013-08-04 20:20:00,
2013-08-04 15:25:00,94.5,68.5,29.91,SSE,150,2.0,2.0,43,0.00,,,0.00,Wunderground v.1.15,2013-08-04 20:25:00,
2013-08-04 15:35:00,95.9,68.4,29.90,SSE,152,1.0,2.0,41,0.00,,,0.00,Wunderground v.1.15,2013-08-04 20:35:00,
2013-08-04 15:40:00,95.9,68.4,29.90,SSE,152,1.0,3.0,41,0.00,,,0.00,Wunderground v.1.15,2013-08-04 20:40:00,
2013-08-04 15:50:00,96.1,67.9,29.90,SSE,152,1.0,1.0,40,0.00,,,0.00,Wunderground v.1.15,2013-08-04 20:50:00,
2013-08-04 15:55:00,96.3,68.1,29.89,SSE,154,1.0,1.0,40,0.00,,,0.00,Wunderground v.1.15,2013-08-04 20:55:00,
2013-08-04 16:05:00,95.6,67.4,29.89,SSE,154,1.0,1.0,40,0.00,,,0.00,Wunderground v.1.15,2013-08-04 21:05:00,
2013-08-04 16:10:00,95.4,68.0,29.89,SSE,161,2.0,2.0,41,0.00,,,0.00,Wunderground v.1.15,2013-08-04 21:10:00,
2013-08-04 16:20:00,95.6,66.7,29.89,SSE,161,1.0,1.0,39,0.00,,,0.00,Wunderground v.1.15,2013-08-04 21:20:00,
2013-08-04 16:25:00,95.4,68.0,29.89,SSE,161,1.0,6.0,41,0.00,,,0.00,Wunderground v.1.15,2013-08-04 21:25:00,
2013-08-04 16:35:00,94.0,66.7,29.88,SSE,161,2.0,2.0,41,0.00,,,0.00,Wunderground v.1.15,2013-08-04 21:35:00,
2013-08-04 16:40:00,93.8,65.1,29.88,SSE,161,2.0,2.0,39,0.00,,,0.00,Wunderground v.1.15,2013-08-04 21:40:00,
2013-08-04 16:50:00,92.9,67.1,29.88,SSE,161,1.0,1.0,43,0.00,,,0.00,Wunderground v.1.15,2013-08-04 21:50:00,
2013-08-04 16:55:00,93.2,66.0,29.88,SSE,161,0.0,5.0,41,0.00,,,0.00,Wunderground v.1.15,2013-08-04 21:55:00,
2013-08-04 17:05:00,93.8,65.8,29.88,SSE,161,1.0,2.0,40,0.00,,,0.00,Wunderground v.1.15,2013-08-04 22:05:00,
2013-08-04 17:10:00,94.3,65.5,29.88,SSE,155,1.0,1.0,39,0.00,,,0.00,Wunderground v.1.15,2013-08-04 22:10:00,
2013-08-04 17:20:00,94.5,65.7,29.87,SSE,157,1.0,1.0,39,0.00,,,0.00,Wunderground v.1.15,2013-08-04 22:20:00,
2013-08-04 17:25:00,94.7,65.9,29.87,SSE,150,2.0,6.0,39,0.00,,,0.00,Wunderground v.1.15,2013-08-04 22:25:00,
2013-08-04 17:35:00,94.5,65.0,29.87,SE,145,3.0,3.0,38,0.00,,,0.00,Wunderground v.1.15,2013-08-04 22:35:00,
2013-08-04 17:40:00,94.3,65.5,29.88,SE,145,2.0,2.0,39,0.00,,,0.00,Wunderground v.1.15,2013-08-04 22:40:00,
2013-08-04 17:50:00,94.0,65.3,29.87,SE,145,1.0,1.0,39,0.00,,,0.00,Wunderground v.1.15,2013-08-04 22:50:00,
2013-08-04 17:55:00,94.0,64.5,29.87,SE,138,1.0,1.0,38,0.00,,,0.00,Wunderground v.1.15,2013-08-04 22:55:00,
2013-08-04 18:05:00,94.0,65.3,29.86,SE,140,2.0,2.0,39,0.00,,,0.00,Wunderground v.1.15,2013-08-04 23:05:00,
2013-08-04 18:10:00,94.0,66.0,29.86,SE,137,2.0,2.0,40,0.00,,,0.00,Wunderground v.1.15,2013-08-04 23:10:00,
2013-08-04 18:20:00,94.0,65.3,29.86,SE,137,1.0,1.0,39,0.00,,,0.00,Wunderground v.1.15,2013-08-04 23:20:00,
2013-08-04 18:25:00,94.0,66.0,29.86,SE,137,1.0,3.0,40,0.00,,,0.00,Wunderground v.1.15,2013-08-04 23:25:00,
2013-08-04 18:34:00,93.8,65.1,29.86,SE,137,1.0,5.0,39,0.00,,,0.00,Wunderground v.1.15,2013-08-04 23:34:00,
2013-08-04 18:40:00,93.8,65.8,29.86,SE,137,1.0,1.0,40,0.00,,,0.00,Wunderground v.1.15,2013-08-04 23:40:00,
2013-08-04 18:50:00,93.6,64.9,29.86,SE,137,1.0,1.0,39,0.00,,,0.00,Wunderground v.1.15,2013-08-04 23:50:00,
2013-08-04 18:55:00,93.6,64.9,29.85,SE,137,1.0,1.0,39,0.00,,,0.00,Wunderground v.1.15,2013-08-04 23:55:00,
2013-08-04 19:05:00,93.4,64.7,29.85,SE,137,0.0,1.0,39,0.00,,,0.00,Wunderground v.1.15,2013-08-05 00:05:00,
2013-08-04 19:10:00,93.2,65.3,29.85,SE,137,1.0,1.0,40,0.00,,,0.00,Wunderground v.1.15,2013-08-05 00:10:00,
2013-08-04 19:20:00,92.9,64.3,29.85,SE,137,0.0,3.0,39,0.00,,,0.00,Wunderground v.1.15,2013-08-05 00:20:00,
2013-08-04 19:25:00,92.7,64.8,29.85,SE,137,0.0,3.0,40,0.00,,,0.00,Wunderground v.1.15,2013-08-05 00:25:00,
2013-08-04 19:35:00,92.3,64.5,29.85,SE,137,0.0,0.0,40,0.00,,,0.00,Wunderground v.1.15,2013-08-05 00:35:00,
2013-08-04 19:40:00,92.1,65.7,29.85,SE,137,0.0,0.0,42,0.00,,,0.00,Wunderground v.1.15,2013-08-05 00:40:00,
2013-08-04 19:50:00,91.6,65.3,29.85,SE,137,1.0,1.0,42,0.00,,,0.00,Wunderground v.1.15,2013-08-05 00:50:00,
2013-08-04 19:55:00,91.6,65.9,29.86,SE,137,1.0,1.0,43,0.00,,,0.00,Wunderground v.1.15,2013-08-05 00:55:00,
2013-08-04 20:05:00,91.2,66.2,29.85,SE,137,1.0,1.0,44,0.00,,,0.00,Wunderground v.1.15,2013-08-05 01:05:00,
2013-08-04 20:10:00,91.0,66.1,29.86,SE,137,0.0,0.0,44,0.00,,,0.00,Wunderground v.1.15,2013-08-05 01:10:00,
2013-08-04 20:20:00,90.3,66.1,29.86,SE,137,0.0,0.0,45,0.00,,,0.00,Wunderground v.1.15,2013-08-05 01:20:00,
2013-08-04 20:25:00,89.9,65.7,29.86,SE,137,1.0,1.0,45,0.00,,,0.00,Wunderground v.1.15,2013-08-05 01:25:00,
2013-08-04 20:35:00,89.5,66.6,29.86,SE,137,0.0,1.0,47,0.00,,,0.00,Wunderground v.1.15,2013-08-05 01:35:00,
2013-08-04 20:40:00,89.3,66.4,29.86,SE,137,0.0,0.0,47,0.00,,,0.00,Wunderground v.1.15,2013-08-05 01:40:00,
2013-08-04 20:50:00,88.4,66.8,29.87,SE,137,0.0,0.0,49,0.00,,,0.00,Wunderground v.1.15,2013-08-05 01:50:00,
2013-08-04 20:55:00,88.2,66.6,29.87,SE,137,1.0,6.0,49,0.00,,,0.00,Wunderground v.1.15,2013-08-05 01:55:00,
2013-08-04 21:05:00,88.0,66.4,29.88,SE,137,2.0,2.0,49,0.00,,,0.00,Wunderground v.1.15,2013-08-05 02:05:00,
2013-08-04 21:10:00,88.2,66.6,29.88,SE,137,1.0,1.0,49,0.00,,,0.00,Wunderground v.1.15,2013-08-05 02:10:00,
2013-08-04 21:20:00,88.2,67.2,29.89,SE,137,1.0,1.0,50,0.00,,,0.00,Wunderground v.1.15,2013-08-05 02:20:00,
2013-08-04 21:25:00,88.0,67.0,29.89,SE,137,1.0,1.0,50,0.00,,,0.00,Wunderground v.1.15,2013-08-05 02:25:00,
2013-08-04 21:34:00,87.6,67.2,29.89,SE,138,3.0,8.0,51,0.00,,,0.00,Wunderground v.1.15,2013-08-05 02:34:00,
2013-08-04 21:40:00,87.6,67.8,29.89,SE,138,3.0,3.0,52,0.00,,,0.00,Wunderground v.1.15,2013-08-05 02:40:00,
2013-08-04 21:50:00,87.2,68.0,29.90,SE,138,2.0,2.0,53,0.00,,,0.00,Wunderground v.1.15,2013-08-05 02:50:00,
2013-08-04 21:55:00,87.0,67.8,29.90,SE,138,1.0,2.0,53,0.00,,,0.00,Wunderground v.1.15,2013-08-05 02:55:00,
2013-08-04 22:05:00,86.7,68.1,29.90,SSE,155,3.0,7.0,54,0.00,,,0.00,Wunderground v.1.15,2013-08-05 03:05:00,
2013-08-04 22:10:00,86.5,67.9,29.90,SSE,157,4.0,5.0,54,0.00,,,0.00,Wunderground v.1.15,2013-08-05 03:10:00,
2013-08-04 22:20:00,86.3,68.2,29.91,SSE,158,4.0,8.0,55,0.00,,,0.00,Wunderground v.1.15,2013-08-05 03:20:00,
2013-08-04 22:25:00,85.9,68.4,29.91,SSE,160,5.0,8.0,56,0.00,,,0.00,Wunderground v.1.15,2013-08-05 03:25:00,
2013-08-04 22:35:00,85.5,68.0,29.91,SSE,158,3.0,6.0,56,0.00,,,0.00,Wunderground v.1.15,2013-08-05 03:35:00,
2013-08-04 22:40:00,85.3,68.3,29.92,SSE,160,3.0,3.0,57,0.00,,,0.00,Wunderground v.1.15,2013-08-05 03:40:00,
2013-08-04 22:50:00,84.9,68.5,29.92,SSE,161,3.0,6.0,58,0.00,,,0.00,Wunderground v.1.15,2013-08-05 03:50:00,
2013-08-04 22:55:00,84.7,68.3,29.92,SSE,161,4.0,6.0,58,0.00,,,0.00,Wunderground v.1.15,2013-08-05 03:55:00,
2013-08-04 23:05:00,84.3,68.4,29.92,SSE,161,4.0,10.0,59,0.00,,,0.00,Wunderground v.1.15,2013-08-05 04:05:00,
2013-08-04 23:10:00,84.0,68.1,29.92,SSE,160,3.0,8.0,59,0.00,,,0.00,Wunderground v.1.15,2013-08-05 04:10:00,
2013-08-04 23:20:00,83.8,68.4,29.93,SSE,160,3.0,3.0,60,0.00,,,0.00,Wunderground v.1.15,2013-08-05 04:20:00,
2013-08-04 23:25:00,83.6,68.7,29.93,SSE,160,1.0,3.0,61,0.00,,,0.00,Wunderground v.1.15,2013-08-05 04:25:00,
2013-08-04 23:35:00,83.2,68.8,29.93,SSE,160,2.0,5.0,62,0.00,,,0.00,Wunderground v.1.15,2013-08-05 04:35:00,
2013-08-04 23:40:00,83.0,68.6,29.93,SSE,160,3.0,7.0,62,0.00,,,0.00,Wunderground v.1.15,2013-08-05 04:40:00,
2013-08-04 23:44:00,82.8,68.4,29.93,SSE,160,4.0,7.0,62,0.00,,,0.00,Wunderground v.1.15,2013-08-05 04:44:00,
2013-08-04 23:50:00,82.6,68.7,29.93,SSE,160,3.0,3.0,63,0.00,,,0.00,Wunderground v.1.15,2013-08-05 04:50:00,
2013-08-04 23:55:00,82.4,68.5,29.93,SSE,161,3.0,5.0,63,0.00,,,0.00,Wunderground v.1.15,2013-08-05 04:55:00,